Simultaneous Nadir Overpasses (SNOs) Predictions

Prediction of SNOs between AQUA and METOP-B Satellite Orbit:

Table of predicted SNOs for the next 14.0 days since TLE Epoch: 11/11/2023
Index Date (AQUA) Time (AQUA) Lat,Lon (AQUA) SZA (AQUA ) Date (METOP-B) Time (METOP-B) Lat,Lon (METOP-B) SZA (METOP-B ) Distance(km) Time Diff (sec)
1 11/12/2023 14:58:44 74.60, -47.32 92.25 11/12/2023 14:57:36 74.54, -49.29 92.19 58.55 68
2 11/12/2023 15:48:15 -75.02, 119.26 87.33 11/12/2023 15:48:08 -75.01, 119.33 87.34 1.98 7
3 11/12/2023 16:37:40 75.05, -73.17 92.71 11/12/2023 16:38:47 75.05, -73.23 92.72 1.72 67
4 11/15/2023 08:00:53 -74.94,-123.65 86.71 11/15/2023 07:59:46 -74.96,-123.73 86.68 3.39 67
5 11/15/2023 08:50:19 75.03, 43.77 93.39 11/15/2023 08:50:24 75.05, 43.85 93.42 3.30 5
6 11/15/2023 09:39:49 -75.38,-149.55 86.25 11/15/2023 09:40:58 -75.42,-147.75 86.21 50.69 69
7 11/18/2023 01:02:56 74.98, 160.77 94.01 11/18/2023 01:02:02 74.98, 160.75 94.02 0.67 54
8 11/18/2023 01:52:20 -75.03, -31.71 85.93 11/18/2023 01:52:43 -75.02, -31.82 85.94 3.23 23
9 11/20/2023 18:04:55 -75.01, 85.23 85.33 11/20/2023 18:04:19 -74.99, 85.19 85.35 1.83 36
10 11/20/2023 18:54:20 75.06,-107.25 94.73 11/20/2023 18:54:57 75.08,-107.24 94.75 2.12 37
11 11/23/2023 11:06:54 75.02, 9.75 95.27 11/23/2023 11:06:34 75.04, 9.73 95.29 2.12 20



Historial Predications of SNOs between AQUA and METOP-B
